Zurück zum Katalog

POPACS 3

AktivWissenschaftPO
NORAD 39270·PAYLOAD·🇺🇸 United States

Gestartet Sep 29, 2013 von Vandenberg Space Force Base

Loading…

Nächste Überflüge (nächste 24 Stunden)

TLE

AktuellSource: Space-Track

Epoche: Sep 13, 2026, 22:10 UTC

1 39270U 13055F   26256.92363054  .00007938  00000-0  18585-3 0  9995
2 39270  81.0005 132.8524 0546394 159.1308 203.3176 14.57409511651472

Verfolge POPACS 3 in Echtzeit mit AllMySat

Download on the App Store